User: anonymous   Login
Location: Unspecified
(0.0000°N, 0.0000°E)
Time: 09:24:23
(UTC+00:00)
Language:

Kosmos-1506 - Orbit

View from above orbital plane
View from above orbital plane
View from above satellite
View from above satellite

Ground track
Ground track

The orbit data is extracted from the following two-line orbital elements,

1 14450U 83108A   17327.85155767  .00000050  00000-0  34695-4 0  9994
2 14450  82.9318  77.5239 0044220 102.6578  12.3124 13.76225853527741
Epoch (UTC): 23 November 2017 20:26:14
Eccentricity: 0.0044220
inclination: 82.9318°
perigee height: 945 km
apogee height: 1010 km
right ascension of ascending node: 77.5239°
argument of perigee: 102.6578°
revolutions per day: 13.76225853
mean anomaly at epoch: 12.3124°
orbit number at epoch: 52774

The dashed part of the orbit path shows where the satellite is in the earth's shadow,  

DLR